When you browse on this site, cookies collect data to enhance your experience and personalize the content and advertising you see.
Visit our Privacy Policy to learn more. By continuing to use the site, you agree to this use of cookies and data.
  • In Hungary
  • List of Countries
  • For 7 days
  • Water Temperature
  • Weather Map
  • News
  • Weather Widgets
  • user-avatar
    Login

    Hourly Weather Hutora Dubskie

    Today, 26 January, Sunday

    Time Temperature Precipitation Wind Pressure Humidity
    00:00 -5°C° 0 mm 5 mps 734 mmHg 81%
    01:00 -5°C° 0 mm 5 mps 734 mmHg 81%
    02:00 -4°C° 0 mm 4 mps 735 mmHg 82%
    03:00 -4°C° 0 mm 4 mps 735 mmHg 83%
    04:00 -4°C° 0 mm 3 mps 736 mmHg 85%
    05:00 -4°C° 0 mm 3 mps 736 mmHg 86%
    06:00 -5°C° 0 mm 3 mps 736 mmHg 86%
    07:00 -5°C° 0 mm 3 mps 736 mmHg 86%
    08:00 -4°C° 0 mm 3 mps 736 mmHg 83%
    09:00 -4°C° 0 mm 4 mps 736 mmHg 82%
    10:00 -3°C° 0 mm 4 mps 736 mmHg 82%
    11:00 -3°C° 0 mm 4 mps 735 mmHg 82%
    12:00 -4°C° 0.2 mm 5 mps 735 mmHg 85%
    13:00 -2°C° 0.2 mm 5 mps 734 mmHg 88%
    14:00 -3°C° 0 mm 6 mps 734 mmHg 88%
    15:00 -2°C° 0.3 mm 6 mps 733 mmHg 89%
    16:00 -2°C° 0.3 mm 6 mps 733 mmHg 90%
    17:00 -1°C° 0.3 mm 6 mps 732 mmHg 91%
    18:00 -1°C° 0 mm 6 mps 732 mmHg 90%
    19:00 +1°C° 0 mm 6 mps 733 mmHg 89%
    20:00 +1°C° 0 mm 6 mps 733 mmHg 88%
    21:00 +1°C° 0 mm 6 mps 733 mmHg 88%
    22:00 +1°C° 0 mm 5 mps 733 mmHg 89%
    23:00 +1°C° 0 mm 5 mps 734 mmHg 89%

    Tomorrow, 27 January, Monday

    Time Temperature Precipitation Wind Pressure Humidity
    00:00 0°C° 0.1 mm 5 mps 734 mmHg 91%
    01:00 0°C° 0.1 mm 4 mps 735 mmHg 94%
    02:00 0°C° 0.1 mm 4 mps 735 mmHg 96%
    03:00 +1°C° 0.2 mm 3 mps 736 mmHg 96%
    04:00 0°C° 0.2 mm 3 mps 736 mmHg 97%
    05:00 +1°C° 0.2 mm 2 mps 736 mmHg 97%
    06:00 -1°C° 0.2 mm 2 mps 737 mmHg 97%
    07:00 -1°C° 0.2 mm 2 mps 737 mmHg 97%
    08:00 0°C° 0.2 mm 1 mps 737 mmHg 96%
    09:00 -2°C° 0.1 mm 2 mps 737 mmHg 96%
    10:00 -2°C° 0.1 mm 2 mps 738 mmHg 95%
    11:00 -2°C° 0.1 mm 2 mps 738 mmHg 94%
    12:00 -2°C° 0.4 mm 2 mps 738 mmHg 94%
    13:00 -2°C° 0.4 mm 2 mps 738 mmHg 95%
    14:00 -2°C° 0.4 mm 2 mps 738 mmHg 95%
    15:00 -2°C° 0.6 mm 3 mps 738 mmHg 96%
    16:00 -2°C° 0.6 mm 3 mps 738 mmHg 96%
    17:00 -2°C° 0.6 mm 3 mps 738 mmHg 96%
    18:00 -4°C° 0.6 mm 3 mps 737 mmHg 96%
    19:00 -4°C° 0.6 mm 3 mps 737 mmHg 96%
    20:00 -4°C° 0.6 mm 4 mps 737 mmHg 95%
    21:00 -4°C° 0.5 mm 3 mps 737 mmHg 95%
    22:00 -4°C° 0.5 mm 3 mps 737 mmHg 95%
    23:00 -4°C° 0.5 mm 3 mps 737 mmHg 95%

    Day after tomorrow, 28 January, Tuesday

    Time Temperature Precipitation Wind Pressure Humidity
    00:00 -4°C° 0.4 mm 3 mps 736 mmHg 95%
    01:00 -4°C° 0.4 mm 3 mps 736 mmHg 95%
    02:00 -4°C° 0.4 mm 3 mps 736 mmHg 95%
    03:00 -4°C° 0.2 mm 3 mps 735 mmHg 95%
    04:00 -3°C° 0.2 mm 2 mps 735 mmHg 95%
    05:00 -3°C° 0.2 mm 2 mps 735 mmHg 95%
    06:00 -3°C° 0.2 mm 2 mps 735 mmHg 96%
    07:00 -3°C° 0.2 mm 2 mps 735 mmHg 96%
    08:00 -3°C° 0.2 mm 2 mps 735 mmHg 96%
    09:00 -2°C° 0.1 mm 2 mps 735 mmHg 95%
    10:00 -2°C° 0.1 mm 2 mps 735 mmHg 95%
    11:00 -2°C° 0.1 mm 2 mps 735 mmHg 94%
    12:00 -1°C° 0.1 mm 2 mps 735 mmHg 95%
    13:00 -1°C° 0.1 mm 2 mps 734 mmHg 95%
    14:00 -1°C° 0.1 mm 2 mps 734 mmHg 95%
    15:00 -1°C° 0.1 mm 2 mps 734 mmHg 96%
    16:00 -1°C° 0.1 mm 2 mps 734 mmHg 96%
    17:00 -2°C° 0.1 mm 2 mps 734 mmHg 97%
    18:00 -2°C° 0 mm 2 mps 734 mmHg 96%
    19:00 -2°C° 0 mm 2 mps 734 mmHg 96%
    20:00 -2°C° 0 mm 2 mps 734 mmHg 95%
    21:00 -2°C° 0 mm 2 mps 734 mmHg 95%
    22:00 -2°C° 0 mm 2 mps 734 mmHg 95%
    23:00 -2°C° 0 mm 2 mps 734 mmHg 95%

    29 January, Wednesday

    Time Temperature Precipitation Wind Pressure Humidity
    00:00 -2°C° 0 mm 2 mps 734 mmHg 95%
    01:00 -2°C° 0 mm 2 mps 734 mmHg 95%
    02:00 -2°C° 0 mm 2 mps 734 mmHg 95%
    03:00 -2°C° 0 mm 2 mps 733 mmHg 95%
    04:00 -2°C° 0 mm 2 mps 733 mmHg 95%
    05:00 -1°C° 0 mm 2 mps 733 mmHg 95%
    06:00 -1°C° 0 mm 2 mps 733 mmHg 94%
    07:00 -1°C° 0 mm 3 mps 733 mmHg 93%
    08:00 -1°C° 0 mm 3 mps 733 mmHg 93%
    09:00 -1°C° 0 mm 3 mps 732 mmHg 92%
    10:00 -1°C° 0 mm 3 mps 732 mmHg 91%
    11:00 -1°C° 0 mm 4 mps 732 mmHg 90%
    12:00 -2°C° 0 mm 4 mps 732 mmHg 91%
    13:00 -2°C° 0 mm 4 mps 732 mmHg 92%
    14:00 -2°C° 0 mm 4 mps 732 mmHg 93%
    15:00 -2°C° 0 mm 4 mps 732 mmHg 94%
    16:00 -3°C° 0 mm 4 mps 731 mmHg 94%
    17:00 -3°C° 0 mm 4 mps 731 mmHg 95%
    18:00 -2°C° 0 mm 4 mps 731 mmHg 94%
    19:00 -2°C° 0 mm 4 mps 731 mmHg 93%
    20:00 -1°C° 0 mm 3 mps 731 mmHg 92%
    21:00 -1°C° 0 mm 3 mps 730 mmHg 94%
    22:00 -1°C° 0 mm 4 mps 730 mmHg 95%
    23:00 -1°C° 0 mm 4 mps 730 mmHg 96%

    30 January, Thursday

    Time Temperature Precipitation Wind Pressure Humidity
    00:00 -1°C° 0.1 mm 4 mps 729 mmHg 97%
    01:00 -1°C° 0.1 mm 4 mps 729 mmHg 97%
    02:00 -1°C° 0.1 mm 4 mps 729 mmHg 97%
    03:00 -1°C° 0.1 mm 4 mps 728 mmHg 97%
    04:00 -1°C° 0.1 mm 4 mps 728 mmHg 97%
    05:00 -1°C° 0.1 mm 4 mps 728 mmHg 97%
    06:00 -1°C° 0 mm 4 mps 728 mmHg 97%
    07:00 -1°C° 0 mm 4 mps 727 mmHg 97%
    08:00 -1°C° 0 mm 4 mps 727 mmHg 97%
    09:00 -1°C° 0 mm 4 mps 727 mmHg 97%
    10:00 -1°C° 0 mm 4 mps 727 mmHg 97%
    11:00 0°C° 0 mm 3 mps 727 mmHg 97%
    12:00 0°C° 0 mm 3 mps 727 mmHg 96%
    13:00 0°C° 0 mm 3 mps 727 mmHg 96%
    14:00 -2°C° 0 mm 4 mps 727 mmHg 95%
    15:00 -1°C° 0.3 mm 3 mps 726 mmHg 95%
    16:00 -2°C° 0.3 mm 3 mps 726 mmHg 96%
    17:00 -2°C° 0.3 mm 3 mps 726 mmHg 96%
    18:00 -2°C° 0.2 mm 3 mps 727 mmHg 96%
    19:00 -3°C° 0.2 mm 2 mps 727 mmHg 96%
    20:00 -3°C° 0.2 mm 2 mps 727 mmHg 95%
    21:00 -3°C° 0.1 mm 2 mps 727 mmHg 95%
    22:00 -1°C° 0.1 mm 1 mps 727 mmHg 95%
    23:00 -1°C° 0.1 mm 1 mps 728 mmHg 95%

    31 January, Friday

    Time Temperature Precipitation Wind Pressure Humidity
    00:00 -1°C° 0.1 mm 1 mps 728 mmHg 95%
    01:00 -1°C° 0 mm 1 mps 728 mmHg 96%
    02:00 -2°C° 0 mm 0 mps 728 mmHg 96%
    03:00 -2°C° 0 mm 0 mps 728 mmHg 96%
    04:00 -2°C° 0 mm 0 mps 728 mmHg 96%
    05:00 -2°C° 0 mm 0 mps 728 mmHg 96%
    06:00 -2°C° 0.1 mm 0 mps 729 mmHg 96%
    07:00 -2°C° 0.1 mm 0 mps 729 mmHg 96%
    08:00 -2°C° 0.1 mm 0 mps 729 mmHg 96%
    09:00 -2°C° 0.1 mm 0 mps 729 mmHg 94%
    10:00 -1°C° 0.1 mm 0 mps 730 mmHg 92%
    11:00 -1°C° 0.1 mm 0 mps 730 mmHg 90%
    12:00 -1°C° 0 mm 0 mps 730 mmHg 90%
    13:00 -1°C° 0 mm 0 mps 730 mmHg 89%
    14:00 0°C° 0 mm 1 mps 730 mmHg 89%
    15:00 -1°C° 0.1 mm 0 mps 731 mmHg 92%
    16:00 -1°C° 0.1 mm 0 mps 731 mmHg 95%
    17:00 -2°C° 0.1 mm 0 mps 731 mmHg 98%
    18:00 -2°C° 0.1 mm 0 mps 732 mmHg 98%
    19:00 -2°C° 0.1 mm 0 mps 732 mmHg 98%
    20:00 -2°C° 0.1 mm 0 mps 732 mmHg 98%
    21:00 -2°C° 0.1 mm 0 mps 733 mmHg 98%
    22:00 -2°C° 0.1 mm 0 mps 733 mmHg 97%
    23:00 -2°C° 0.1 mm 1 mps 733 mmHg 97%
    Show more